Wuhan-1

operational
NORAD ID: 59810 Int'l Des: NNA 2024-095 Owner: YUNCH/NANXI Country: CN
LEOCIRCULARRETROGRADESSO

About Wuhan-1

Description loading...

Live Position

Loading 3D Globe...

Upcoming Passes

Altitude History

Altitude vs Time

uPlot chart will show altitude changes over time

Two-Line Element Set

1 59810U 24095A 25339.27097998 .00010329 00000-0 62581-3 0 9996
2 59810 97.5544 55.8551 0004032 87.2458 272.9233 15.10764230 84853
Epoch: Dec 5, 2025 • Age: 17 hours

Current Status

Altitude 537.9 km
Velocity 7.59 km/s
Sub-Earth Point -6.11°S, 17.08°W
Launch Date May 21, 2024
Age 1.5 years
Type other

Technical Details

Classification Payload
Mass 345.00 kg
Dry Mass 345.00 kg
Total Mass 345.00 kg
Length 1.50 m
Diameter 0.50 m
Span 3.50 m
Shape Box + 2 pan
Manufacturer SWK
Bus Type Wuhan
Phase Status In Orbit
Owner/State YUNCH/NANXI/CN

Large Constellations

Loading constellations...